Weather Roundup
Issued by NWS Springfield, MO

Home | Current Version | Previous Version | Text Only | Print | Product List | Glossary On
Versions: 1 2 3 4 5 6 7 8 9 10 11 12 13 14 15 16 17 18 19 20 21 22 23 24 25 26 27 28 29 30 31 32 33 34 35 36 37 38 39 40 41 42 43 44 45 46 47 48 49 50
000
NZUS99 KSGF 151857
HRRSGF

HOURLY WEATHER
NATIONAL WEATHER SERVICE SPRINGFIELD MO
100 PM CST SUN JAN 15 2017

......SGF CWA......

CITY           SKY/WX    TMP DP  RH WIND       PRES   REMARKS
SPRINGFIELD    FOG       40  39  97 S10       30.19F VSB 1/2 WCI  33
JOPLIN         CLOUDY    38  38 100 VRB5      30.19F FOG     WCI  34
ROLLA          MIX PCPN  32  32 100 E6        30.23F FOG     WCI  26
BRANSON        FOG       41  41 100 SE8       30.22F VSB 1/8

......SURROUNDING SGF CWA......

CITY           SKY/WX    TMP DP  RH WIND       PRES   REMARKS
CHANUTE        CLOUDY    34  33  96 E6        30.21F FOG     WCI  29
PARSONS        LGT RAIN  36  34  92 NE6       30.21F FOG     WCI  31
EMPORIA        CLOUDY    31  31 100 NE5       30.21F FOG     WCI  26
ROGERS AR      FOG       46  46 100 E5        30.19F VSB 3/4
HARRISON AR    FOG       45  45 100 SE7       30.20F VSB<1/4

......KANSAS AND MISSOURI......

CITY           SKY/WX    TMP DP  RH WIND       PRES   REMARKS
KANSAS CTY INT FRZ RAIN  32  29  88 E8        30.24F FOG     WCI  25
SEDALIA        CLOUDY    34  32  92 E8        30.27F FOG     WCI  27
ST JOSEPH      MIX PCPN  31  30  96 E7        30.27F FOG     WCI  24
ST LOUIS       CLOUDY    35  32  88 E6        30.31F FOG     WCI  30
WICHITA        LGT RAIN  33  33 100 E7        30.17F FOG     WCI  27
TOPEKA         FRZ RAIN  33  30  88 E8        30.23F FOG     WCI  26
OLATHE         FRZ RAIN  31  31 100 E8        30.23F WCI  23

......TENNESSEE......

CITY           SKY/WX    TMP DP  RH WIND       PRES   REMARKS
MEMPHIS        NOT AVBL
NASHVILLE      CLOUDY    54  48  80 N6        30.28F

......ARKANSAS.......

CITY           SKY/WX    TMP DP  RH WIND       PRES   REMARKS
FAYETTEVILLE   CLOUDY    56  55  97 VRB3      30.16F
FT SMITH       CLOUDY    50  48  93 E14       30.17F FOG
LITTLE ROCK    FOG       45  45 100 E5        30.24F VSB 1/4

......OKLAHOMA.......

CITY           SKY/WX    TMP DP  RH WIND       PRES   REMARKS
TULSA          DRZL/FOG  39  39 100 N6        30.19F VSB 1   WCI  35
PONCA CITY     CLOUDY    35  33  92 NE8       30.17F WCI  29
MCALESTER      LGT RAIN  46  44  93 NE6       30.14F VSB 1/4
OKLAHOMA CITY  LGT RAIN  35  34  96 NE13      30.09F FOG     WCI  26

......IOWA............

CITY           SKY/WX    TMP DP  RH WIND       PRES   REMARKS
DES MOINES     NOT AVBL
QUAD CITIES    CLOUDY    33  16  49 CALM      30.35F

......ILLINOIS........

CITY           SKY/WX    TMP DP  RH WIND       PRES   REMARKS
QUINCY         MIX PCPN  30  28  93 E5        30.32F FOG     WCI  25
CHICAGO        CLOUDY    33  20  58 CALM      30.35F




USA.gov is the U.S. government's official web portal to all federal, state and local government web resources and services.